Flag for U.S.A. Weather past 2 weeks in Oxnard, California, U.S.A.

Now
69 °F

Clear.


Feels Like: 69 °F
Forecast: 61 / 77 °F
Wind: No wind

Location: Oxnard Airport

Current Time: Aug 30, 2014 at 11:59:07 PM

Latest Report: Aug 30, 2014 at 10:51 PM


Visibility: 9 mi

Pressure: 29.76 "Hg

Humidity: 79%

Dew point: 62 °F

Location of OxnardLocation

Historic Weather in Oxnard — Graph

°F

Oxnard temperature yesterday

Maximum temperature yesterday: 74 °F (at 1:51 PM)
Minimum temperature yesterday: 58 °F (at 6:51 AM)
Average temperature yesterday: 66 °F

Past Weeks' High & Low Weather Summary

 TemperatureHumidityPressure
High81 °F (Aug 27, 1:51 PM)100% (Aug 30, 7:51 AM)30.04 "Hg (Aug 30, 7:51 AM)
Low57 °F (Aug 26, 4:51 AM)36% (Aug 27, 9:51 AM)29.73 "Hg (Aug 30, 6:51 PM)
Average67 °F78%29.91 "Hg
* Reported Aug 15 9:51 PM — Aug 30 9:51 PM, Oxnard, Weather by CustomWeather, © 2014

Note: Actual official high and low records may vary slightly from our data, if they occured in-between our weather recording intervals... More about our weather records

Advertising

Oxnard weather history for previous 24 hours

 ConditionsComfort  
Time TempWeatherWind HumidityBarometerVisibility
9:51 PM
Aug 30
68 °FClear.5 mph82%29.76 "Hg9 mi
8:51 PM68 °FClear.6 mph82%29.75 "Hg8 mi
7:51 PM69 °FSunny.5 mph79%29.73 "Hg9 mi
6:51 PM72 °FSunny.No wind71%29.73 "Hg9 mi
5:51 PM73 °FSunny.7 mph66%29.74 "Hg10 mi
4:51 PM73 °FSunny.8 mph69%29.75 "Hg10 mi
3:51 PM74 °FSunny.9 mph69%29.77 "Hg8 mi
2:51 PM75 °FSunny.10 mph69%29.79 "Hg9 mi
1:51 PM74 °FSunny.8 mph71%29.80 "Hg9 mi
12:51 PM74 °FSunny.9 mph71%29.82 "Hg9 mi
11:51 AM73 °FSunny.8 mph74%29.84 "Hg8 mi
10:51 AM72 °FSunny.8 mph76%29.85 "Hg8 mi
9:51 AM71 °FSunny.No wind78%29.84 "Hg6 mi
8:51 AM66 °FFog.3 mph90%29.83 "Hg4 mi
7:51 AM63 °FFog.No wind100%29.83 "Hg0 mi
6:51 AM62 °FFog.3 mph96%29.82 "Hg0 mi
5:51 AM62 °FFog.3 mph96%29.81 "Hg2 mi
5:03 AM63 °FFog.No wind90%29.80 "Hg2 mi
4:51 AM63 °FLow clouds.6 mph87%29.80 "Hg8 mi
3:51 AM62 °FClear.No wind86%29.79 "Hg7 mi
3:03 AM63 °FPassing clouds.No wind90%29.80 "Hg7 mi
2:51 AM63 °FClear.No wind87%29.79 "Hg7 mi
1:51 AM64 °FFog.No wind87%29.80 "Hg6 mi
12:51 AM65 °FClear.No wind87%29.80 "Hg7 mi
11:51 PM
Aug 29
64 °FFog.No wind90%29.81 "Hg6 mi
Weather by CustomWeather, © 2014

See weather overviewHow to use our weather pages